To NAV CANADA Home Page Login to a new session Search on AWWS site Feedback and Comments Disclaimer Vers la page française équivalente Tips FAQ What's new on the site To the Forecasts and Observations / NOTAM section To "File a Flight Plan" website Publications and other links Update of the User's profile FIC Telephone Numbers My Weather Data Folder Route Weather Data Regional Weather Data Local Weather Data To the Forecasts and Observations / NOTAM section
Request Generated 05/03/2016 at 01:11:33 UTC . Weather information available at that time is displayed.

METAR/TAF

PANGNIRTUNG/NU    (show WxCam)

LWIS CYXP 030100Z AUTO 11002KT M03/M04 A2983=
LWIS CYXP 030000Z AUTO 00000KT M03/M04 A2983=
LWIS CYXP 022300Z AUTO 25002KT M04/M04 A2983=

*** REMARK        : Forecast period has ended; this was the last TAF issued
*** REMARQUE : La période de prévision est échue; ceci était le dernier TAF qui a été émis
TAF AMD CYXP 022004Z 0220/0222 25010KT 4SM -SN FEW004 BKN020 OVC025
TEMPO 0220/0222 2SM -SN OVC020
RMK NXT FCST WILL BE ISSUED AT 031245Z=
Your time UTC time
Weather data provided by Environment Canada and NAV CANADA